User: anonymous   Login
Location: Corralito
(10.2667°N, 66.9500°W)
Time: 14:44:13
(UTC+00:00)
Language:

CZ-4B R/B - Orbit

View from above orbital plane
View from above orbital plane
View from above satellite
View from above satellite

Ground track
Ground track

The orbit data is extracted from the following two-line orbital elements,

1 27432U 02024C   23270.57034890  .00000116  00000-0  83695-4 0  9999
2 27432  99.0150 306.1198 0050927  37.9852  78.3064 14.14239878102849
Epoch (UTC): 27 September 2023 13:41:18
Eccentricity: 0.0050927
inclination: 99.0150°
perigee height: 808 km
apogee height: 881 km
right ascension of ascending node: 306.1198°
argument of perigee: 37.9852°
revolutions per day: 14.14239878
mean anomaly at epoch: 78.3064°
orbit number at epoch: 10284

The dashed part of the orbit path shows where the satellite is in the earth's shadow,  

DLR